Home   Weather   Nieuw Nickerie   Past weeks

Flag for Suriname Past Weather in Nieuw Nickerie, Suriname — Yesterday and Last 2 Weeks

75 °F

Passing clouds.

Feels Like: 73 °F
Forecast: 79 / 88 °F
Wind: 5 mph from Southwest

Location: Georgetown/Cheddi Jagan International Airport

Current Time: Oct 28, 2016 at 3:18:06 AM

Latest Report: Oct 28, 2016 at 3:00 AM

Visibility: 6 mi

Pressure: 29.77 "Hg

Humidity: 100%

Dew Point: 75 °F

Location of Nieuw NickerieLocation

Past Weather in Nieuw Nickerie — Graph


Nieuw Nickerie Temperature Yesterday

Maximum temperature yesterday: 93 °F (at 3:00 PM)
Minimum temperature yesterday: 72 °F (at 6:00 AM)
Average temperature yesterday: 83 °F

High & Low Weather Summary for the Past Weeks

High95 °F (Oct 18, 2:00 PM)100% (Oct 13, 2:00 AM)29.95 "Hg (Oct 13, 2:00 AM)
Low72 °F (Oct 14, 6:00 AM)47% (Oct 18, 2:00 PM)29.71 "Hg (Oct 25, 3:00 PM)
Average81 °F82%29.83 "Hg
* Reported Oct 13 2:00 AM — Oct 28 2:00 AM, Nieuw Nickerie, Weather by CustomWeather, © 2016

Note: Actual official high and low records may vary slightly from our data, if they occured in-between our weather recording intervals... More about our weather records


Nieuw Nickerie Weather History for the Previous 24 Hours

Scroll right to see more
Time TempWeatherWind HumidityBarometerVisibility
2:00 AM
Fri, Oct 28
75 °FPartly cloudy.5 mph100%29.80 "Hg10 mi
1:00 AM75 °FPartly cloudy.5 mph100%29.80 "Hg10 mi
12:00 AM77 °FPartly cloudy.7 mph94%29.80 "Hg10 mi
11:00 PM
Thu, Oct 27
79 °FClear.5 mph94%29.86 "Hg10 mi
10:00 PM77 °FPassing clouds.5 mph94%29.80 "Hg10 mi
9:00 PM81 °FPassing clouds.5 mph84%29.77 "HgN/A
7:00 PM86 °FPartly cloudy.7 mph70%29.74 "HgN/A
6:00 PM86 °FPartly sunny.12 mph70%29.74 "HgN/A
5:00 PM88 °FScattered clouds.14 mph62%29.74 "HgN/A
4:00 PM90 °FScattered clouds.12 mph59%29.74 "HgN/A
3:00 PM93 °FScattered clouds.12 mph53%29.74 "HgN/A
2:00 PM91 °FScattered clouds.9 mph56%N/AN/A
1:00 PM90 °FScattered clouds.12 mph59%29.80 "HgN/A
12:00 PM91 °FScattered clouds.9 mph56%29.80 "HgN/A
11:00 AM90 °FScattered clouds.9 mph59%29.83 "HgN/A
10:00 AM86 °FScattered clouds.7 mph70%29.86 "HgN/A
9:00 AM82 °FPassing clouds.5 mph84%29.83 "HgN/A
8:00 AM77 °FPassing clouds.No wind94%29.80 "Hg4 mi
7:00 AM72 °FFog.No wind100%29.80 "Hg0 mi
6:00 AM72 °FFog.No wind100%29.77 "Hg0 mi
Weather by CustomWeather, © 2016

See weather overviewHow to use our weather pages